Time,TemperatureF,DewpointF,PressureIn,WindDirection,WindDirectionDegrees,WindSpeedMPH,WindSpeedGustMPH,Humidity,HourlyPrecipIn,Conditions,Clouds,dailyrainin,SolarRadiationWatts/m^2,SoftwareType,DateUTC
2013-07-21 00:07:00,71.8,69.6,30.13,West,270,0.0,0.0,93,0.00,,,0.00,9.0,meteobridge,2013-07-21 04:07:00,
2013-07-21 00:17:00,71.8,69.6,30.13,West,270,0.0,0.0,93,0.00,,,0.00,9.0,meteobridge,2013-07-21 04:17:00,
2013-07-21 00:32:00,-999.0,-99.9,-100.00,North,-999,-999.0,-999.0,-999,-99.99,,,-99.99,,,2013-07-21 04:32:00,
2013-07-21 00:44:00,-999.0,-99.9,-100.00,North,-999,-999.0,-999.0,-999,-99.99,,,-99.99,,,2013-07-21 04:44:00,
2013-07-21 00:50:00,71.2,69.4,30.13,West,270,0.0,0.0,94,0.00,,,0.00,,meteobridge,2013-07-21 04:50:00,
2013-07-21 01:00:00,71.4,69.6,30.13,West,270,0.0,0.0,94,0.00,,,0.00,,meteobridge,2013-07-21 05:00:00,
2013-07-21 01:11:00,71.2,69.4,30.13,West,270,0.0,0.0,94,0.00,,,0.00,,meteobridge,2013-07-21 05:11:00,
2013-07-21 01:21:00,71.2,69.4,30.13,West,270,0.0,0.0,94,0.00,,,0.00,,meteobridge,2013-07-21 05:21:00,
2013-07-21 01:31:00,71.2,69.8,30.12,West,270,0.0,0.0,95,0.00,,,0.00,,meteobridge,2013-07-21 05:31:00,
2013-07-21 01:41:00,71.4,70.0,30.12,West,270,0.0,0.0,95,0.00,,,0.00,,meteobridge,2013-07-21 05:41:00,
2013-07-21 01:51:00,71.4,70.0,30.12,West,270,0.0,0.0,95,0.00,,,0.00,,meteobridge,2013-07-21 05:51:00,
2013-07-21 02:01:00,71.4,70.0,30.12,West,270,0.0,0.0,95,0.00,,,0.00,,meteobridge,2013-07-21 06:01:00,
2013-07-21 02:11:00,71.4,70.0,30.12,West,270,0.0,0.0,95,0.00,,,0.00,,meteobridge,2013-07-21 06:11:00,
2013-07-21 02:21:00,71.2,69.8,30.11,West,270,0.0,0.0,95,0.00,,,0.00,,meteobridge,2013-07-21 06:21:00,
2013-07-21 02:31:00,71.2,69.8,30.11,West,270,0.0,0.0,95,0.00,,,0.00,,meteobridge,2013-07-21 06:31:00,
2013-07-21 02:41:00,71.1,69.6,30.11,West,270,0.0,0.0,95,0.00,,,0.00,,meteobridge,2013-07-21 06:41:00,
2013-07-21 02:52:00,71.1,69.6,30.11,West,270,0.0,0.0,95,0.00,,,0.00,,meteobridge,2013-07-21 06:52:00,
2013-07-21 03:02:00,70.9,69.4,30.11,West,270,0.0,0.0,95,0.00,,,0.00,,meteobridge,2013-07-21 07:02:00,
2013-07-21 03:12:00,71.1,69.6,30.11,West,270,0.0,0.0,95,0.00,,,0.00,,meteobridge,2013-07-21 07:12:00,
2013-07-21 03:22:00,70.9,69.4,30.10,West,270,0.0,0.0,95,0.00,,,0.00,,meteobridge,2013-07-21 07:22:00,
2013-07-21 03:32:00,70.9,69.4,30.10,West,270,0.0,0.0,95,0.00,,,0.00,,meteobridge,2013-07-21 07:32:00,
2013-07-21 03:42:00,70.7,69.3,30.10,West,270,0.0,0.0,95,0.00,,,0.00,,meteobridge,2013-07-21 07:42:00,
2013-07-21 03:52:00,70.7,69.3,30.10,West,270,0.0,0.0,95,0.00,,,0.00,,meteobridge,2013-07-21 07:52:00,
2013-07-21 04:02:00,70.7,69.3,30.09,West,270,0.0,0.0,95,0.00,,,0.00,,meteobridge,2013-07-21 08:02:00,
2013-07-21 04:12:00,70.3,68.9,30.09,West,270,0.0,0.0,95,0.00,,,0.00,,meteobridge,2013-07-21 08:12:00,
2013-07-21 04:22:00,70.3,68.9,30.09,West,270,0.0,0.0,95,0.00,,,0.00,,meteobridge,2013-07-21 08:22:00,
2013-07-21 04:33:00,70.2,68.7,30.10,West,270,0.0,0.0,95,0.00,,,0.00,,meteobridge,2013-07-21 08:33:00,
2013-07-21 04:43:00,70.3,68.9,30.10,West,270,0.0,0.0,95,0.00,,,0.00,,meteobridge,2013-07-21 08:43:00,
2013-07-21 04:53:00,70.2,68.7,30.10,West,270,0.0,0.0,95,0.00,,,0.00,,meteobridge,2013-07-21 08:53:00,
2013-07-21 05:03:00,70.2,68.7,30.10,West,270,0.0,0.0,95,0.00,,,0.00,,meteobridge,2013-07-21 09:03:00,
2013-07-21 05:13:00,70.2,68.7,30.10,West,270,0.0,0.0,95,0.00,,,0.00,,meteobridge,2013-07-21 09:13:00,
2013-07-21 05:23:00,70.0,68.5,30.11,West,270,0.0,0.0,95,0.00,,,0.00,,meteobridge,2013-07-21 09:23:00,
2013-07-21 05:33:00,70.0,68.7,30.11,West,270,0.0,0.0,96,0.00,,,0.00,,meteobridge,2013-07-21 09:33:00,
2013-07-21 05:43:00,70.0,68.7,30.11,West,270,0.0,0.0,96,0.00,,,0.00,,meteobridge,2013-07-21 09:43:00,
2013-07-21 05:53:00,70.2,68.9,30.12,West,270,0.0,0.0,96,0.00,,,0.00,,meteobridge,2013-07-21 09:53:00,
2013-07-21 06:04:00,70.3,69.1,30.11,West,270,0.0,0.0,96,0.00,,,0.00,,meteobridge,2013-07-21 10:04:00,
2013-07-21 06:14:00,70.3,69.1,30.12,West,270,0.0,0.0,96,0.00,,,0.00,,meteobridge,2013-07-21 10:14:00,
2013-07-21 06:24:00,70.3,69.1,30.11,West,270,0.0,0.0,96,0.00,,,0.00,,meteobridge,2013-07-21 10:24:00,
2013-07-21 06:34:00,70.5,69.3,30.11,West,270,0.0,0.0,96,0.00,,,0.00,,meteobridge,2013-07-21 10:34:00,
2013-07-21 06:44:00,70.7,69.4,30.11,West,270,0.0,0.0,96,0.00,,,0.00,,meteobridge,2013-07-21 10:44:00,
2013-07-21 06:54:00,70.7,69.4,30.12,West,270,0.0,0.0,96,0.00,,,0.00,,meteobridge,2013-07-21 10:54:00,
2013-07-21 07:04:00,70.9,69.6,30.12,West,270,0.0,0.0,96,0.00,,,0.00,,meteobridge,2013-07-21 11:04:00,
2013-07-21 07:14:00,71.1,69.8,30.12,West,270,0.0,0.0,96,0.00,,,0.00,,meteobridge,2013-07-21 11:14:00,
2013-07-21 07:24:00,71.6,70.2,30.12,West,270,0.0,0.0,95,0.00,,,0.00,,meteobridge,2013-07-21 11:24:00,
2013-07-21 07:34:00,71.8,70.3,30.13,North,0,0.0,0.0,95,0.00,,,0.00,,meteobridge,2013-07-21 11:34:00,
2013-07-21 07:45:00,72.3,70.9,30.13,North,0,0.0,0.0,95,0.00,,,0.00,,meteobridge,2013-07-21 11:45:00,
2013-07-21 07:55:00,72.9,71.4,30.13,North,0,0.0,0.0,95,0.00,,,0.00,,meteobridge,2013-07-21 11:55:00,
2013-07-21 08:05:00,73.0,71.2,30.13,South,180,0.0,0.0,94,0.00,,,0.00,,meteobridge,2013-07-21 12:05:00,
2013-07-21 08:15:00,73.0,70.9,30.13,South,180,0.0,0.0,93,0.00,,,0.00,,meteobridge,2013-07-21 12:15:00,
2013-07-21 08:25:00,73.2,71.1,30.14,North,0,0.7,0.7,93,0.00,,,0.00,,meteobridge,2013-07-21 12:25:00,
2013-07-21 08:35:00,73.8,71.6,30.14,West,270,0.0,0.0,93,0.00,,,0.00,,meteobridge,2013-07-21 12:35:00,
2013-07-21 08:45:00,73.8,71.6,30.15,North,0,0.0,0.0,93,0.00,,,0.00,,meteobridge,2013-07-21 12:45:00,
2013-07-21 08:55:00,73.8,71.2,30.15,North,0,0.0,0.0,92,0.00,,,0.00,,meteobridge,2013-07-21 12:55:00,
2013-07-21 09:05:00,73.4,70.5,30.15,North,0,0.7,1.6,91,0.00,,,0.00,,meteobridge,2013-07-21 13:05:00,
2013-07-21 09:15:00,73.2,70.5,30.15,North,0,0.0,0.7,91,0.00,,,0.00,,meteobridge,2013-07-21 13:15:00,
2013-07-21 09:26:00,73.8,71.2,30.15,North,0,0.0,0.0,92,0.00,,,0.00,,meteobridge,2013-07-21 13:26:00,
2013-07-21 09:36:00,74.3,71.4,30.15,North,0,0.7,0.7,91,0.00,,,0.00,,meteobridge,2013-07-21 13:36:00,
2013-07-21 09:46:00,74.1,71.1,30.15,North,0,0.0,0.0,90,0.00,,,0.00,,meteobridge,2013-07-21 13:46:00,
2013-07-21 09:56:00,75.0,72.0,30.15,North,0,0.0,0.0,90,0.00,,,0.00,,meteobridge,2013-07-21 13:56:00,
2013-07-21 10:06:00,74.8,71.4,30.15,North,0,0.7,0.7,89,0.00,,,0.00,,meteobridge,2013-07-21 14:06:00,
2013-07-21 10:16:00,75.6,71.8,30.15,North,0,0.0,1.6,88,0.00,,,0.00,,meteobridge,2013-07-21 14:16:00,
2013-07-21 10:26:00,75.9,71.8,30.15,North,0,0.0,0.7,87,0.00,,,0.00,,meteobridge,2013-07-21 14:26:00,
2013-07-21 10:36:00,76.6,72.1,30.16,North,0,0.0,0.7,86,0.00,,,0.00,,meteobridge,2013-07-21 14:36:00,
2013-07-21 10:46:00,77.9,72.7,30.16,North,0,0.7,1.6,84,0.00,,,0.00,,meteobridge,2013-07-21 14:46:00,
2013-07-21 10:57:00,77.7,72.1,30.15,North,0,0.0,0.7,83,0.00,,,0.00,,meteobridge,2013-07-21 14:57:00,
2013-07-21 11:07:00,78.1,72.1,30.15,West,270,0.0,2.2,82,0.00,,,0.00,,meteobridge,2013-07-21 15:07:00,
2013-07-21 11:17:00,79.0,72.7,30.15,West,270,0.0,2.2,81,0.00,,,0.00,,meteobridge,2013-07-21 15:17:00,
2013-07-21 11:27:00,82.4,74.1,30.15,East,90,0.0,0.0,76,0.00,,,0.00,,meteobridge,2013-07-21 15:27:00,
2013-07-21 11:37:00,80.8,72.1,30.15,East,90,0.0,2.2,75,0.00,,,0.00,,meteobridge,2013-07-21 15:37:00,
2013-07-21 11:47:00,80.8,72.1,30.16,East,90,1.6,1.6,75,0.00,,,0.00,,meteobridge,2013-07-21 15:47:00,
2013-07-21 11:57:00,81.9,73.2,30.15,South,180,0.7,3.1,75,0.00,,,0.00,,meteobridge,2013-07-21 15:57:00,
2013-07-21 12:07:00,82.9,72.5,30.15,North,0,1.6,2.2,71,0.00,,,0.00,,meteobridge,2013-07-21 16:07:00,
2013-07-21 12:17:00,82.0,72.1,30.15,South,180,1.6,1.6,72,0.00,,,0.00,,meteobridge,2013-07-21 16:17:00,
2013-07-21 12:27:00,83.5,73.0,30.15,North,0,1.6,3.1,71,0.00,,,0.00,,meteobridge,2013-07-21 16:27:00,
2013-07-21 12:38:00,82.9,73.0,30.14,South,180,0.7,1.6,72,0.00,,,0.00,,meteobridge,2013-07-21 16:38:00,
2013-07-21 12:48:00,84.6,74.1,30.14,North,0,1.6,3.1,71,0.00,,,0.00,,meteobridge,2013-07-21 16:48:00,
2013-07-21 12:58:00,85.3,74.8,30.13,North,0,1.6,2.2,71,0.00,,,0.00,,meteobridge,2013-07-21 16:58:00,
2013-07-21 13:08:00,86.0,74.1,30.13,East,90,3.8,3.8,68,0.00,,,0.00,,meteobridge,2013-07-21 17:08:00,
2013-07-21 13:18:00,87.3,74.5,30.12,North,0,2.2,2.2,66,0.00,,,0.00,,meteobridge,2013-07-21 17:18:00,
2013-07-21 13:28:00,88.0,74.3,30.11,South,180,0.0,3.8,64,0.00,,,0.00,,meteobridge,2013-07-21 17:28:00,
2013-07-21 13:38:00,87.4,73.2,30.11,East,90,2.2,2.2,63,0.00,,,0.00,,meteobridge,2013-07-21 17:38:00,
2013-07-21 13:48:00,88.5,73.8,30.11,South,180,2.2,2.2,62,0.00,,,0.00,,meteobridge,2013-07-21 17:48:00,
2013-07-21 13:58:00,88.0,73.4,30.10,North,0,2.2,2.2,62,0.00,,,0.00,,meteobridge,2013-07-21 17:58:00,
2013-07-21 14:08:00,88.3,72.7,30.09,South,180,2.2,2.2,60,0.00,,,0.00,,meteobridge,2013-07-21 18:08:00,
2013-07-21 14:19:00,88.7,72.5,30.09,North,0,0.7,1.6,59,0.00,,,0.00,,meteobridge,2013-07-21 18:19:00,
2013-07-21 14:29:00,89.1,72.9,30.09,North,0,1.6,3.1,59,0.00,,,0.00,,meteobridge,2013-07-21 18:29:00,
2013-07-21 14:39:00,89.1,72.9,30.08,North,0,3.8,3.8,59,0.00,,,0.00,,meteobridge,2013-07-21 18:39:00,
2013-07-21 14:49:00,88.2,72.5,30.08,South,180,2.2,3.1,60,0.00,,,0.00,,meteobridge,2013-07-21 18:49:00,
2013-07-21 14:59:00,86.4,72.3,30.08,North,0,3.1,3.1,63,0.00,,,0.00,,meteobridge,2013-07-21 18:59:00,
2013-07-21 15:09:00,88.2,72.5,30.08,North,0,2.2,3.1,60,0.00,,,0.00,,meteobridge,2013-07-21 19:09:00,
2013-07-21 15:19:00,88.2,71.1,30.08,North,0,1.6,1.6,57,0.00,,,0.00,,meteobridge,2013-07-21 19:19:00,
2013-07-21 15:29:00,87.8,72.7,30.07,South,180,1.6,2.2,61,0.00,,,0.00,,meteobridge,2013-07-21 19:29:00,
2013-07-21 15:39:00,88.3,72.1,30.06,South,180,0.7,0.7,59,0.00,,,0.00,,meteobridge,2013-07-21 19:39:00,
2013-07-21 15:49:00,88.9,72.7,30.06,South,180,0.0,2.2,59,0.00,,,0.00,,meteobridge,2013-07-21 19:49:00,
2013-07-21 16:00:00,87.8,71.2,30.06,South,180,1.6,3.1,58,0.00,,,0.00,,meteobridge,2013-07-21 20:00:00,
2013-07-21 16:10:00,87.4,71.8,30.06,South,180,2.2,2.2,60,0.00,,,0.00,,meteobridge,2013-07-21 20:10:00,
2013-07-21 16:18:00,-999.0,-99.9,-100.00,North,-999,-999.0,-999.0,-999,-99.99,,,-99.99,,,2013-07-21 20:18:00,
2013-07-21 16:30:00,87.6,71.1,30.05,South,180,1.6,3.1,58,0.00,,,0.00,,meteobridge,2013-07-21 20:30:00,
2013-07-21 16:40:00,87.1,70.0,30.05,South,180,3.1,3.1,57,0.00,,,0.00,,meteobridge,2013-07-21 20:40:00,
2013-07-21 16:50:00,88.3,70.7,30.04,North,0,1.6,2.2,56,0.00,,,0.00,,meteobridge,2013-07-21 20:50:00,
2013-07-21 17:00:00,87.6,69.4,30.04,West,270,1.6,3.8,55,0.00,,,0.00,,meteobridge,2013-07-21 21:00:00,
2013-07-21 17:10:00,87.3,69.6,30.04,South,180,0.0,1.6,56,0.00,,,0.00,,meteobridge,2013-07-21 21:10:00,
2013-07-21 17:20:00,88.7,71.1,30.04,South,180,0.7,2.2,56,0.00,,,0.00,,meteobridge,2013-07-21 21:20:00,
2013-07-21 17:30:00,88.0,70.9,30.04,North,0,2.2,2.2,57,0.00,,,0.00,,meteobridge,2013-07-21 21:30:00,
2013-07-21 17:41:00,86.5,72.0,30.05,South,180,0.0,0.0,62,0.00,,,0.00,,meteobridge,2013-07-21 21:41:00,
2013-07-21 17:51:00,86.0,72.0,30.05,North,0,0.0,0.0,63,0.00,,,0.00,,meteobridge,2013-07-21 21:51:00,
2013-07-21 18:01:00,84.9,71.8,30.04,South,180,0.0,0.0,65,0.00,,,0.00,,meteobridge,2013-07-21 22:01:00,
2013-07-21 18:11:00,83.8,72.5,30.03,North,0,0.7,2.2,69,0.00,,,0.00,,meteobridge,2013-07-21 22:11:00,
2013-07-21 18:21:00,82.8,72.0,30.04,North,0,0.0,2.2,70,0.00,,,0.00,,meteobridge,2013-07-21 22:21:00,
2013-07-21 18:31:00,82.2,72.7,30.05,South,180,0.0,0.0,73,0.00,,,0.00,,meteobridge,2013-07-21 22:31:00,
2013-07-21 18:41:00,81.7,72.1,30.05,South,180,0.0,0.0,73,0.00,,,0.00,9.0,meteobridge,2013-07-21 22:41:00,
2013-07-21 18:51:00,81.5,72.3,30.06,North,0,0.0,0.0,74,0.00,,,0.00,9.0,meteobridge,2013-07-21 22:51:00,
2013-07-21 19:01:00,81.0,72.0,30.07,North,0,2.2,2.2,74,0.00,,,0.00,9.0,meteobridge,2013-07-21 23:01:00,
2013-07-21 19:11:00,80.6,72.0,30.07,North,0,3.1,3.1,75,0.00,,,0.00,9.0,meteobridge,2013-07-21 23:11:00,
2013-07-21 19:22:00,78.8,71.8,30.08,North,0,1.6,2.2,79,0.00,,,0.00,,meteobridge,2013-07-21 23:22:00,
2013-07-21 19:32:00,77.0,71.1,30.09,North,0,2.2,4.5,82,0.00,,,0.00,,meteobridge,2013-07-21 23:32:00,
2013-07-21 19:42:00,74.8,70.7,30.10,NE,45,2.2,5.4,87,0.01,,,0.01,,meteobridge,2013-07-21 23:42:00,
2013-07-21 19:52:00,73.6,70.7,30.11,South,180,3.8,3.8,91,0.13,,,0.13,,meteobridge,2013-07-21 23:52:00,
2013-07-21 20:02:00,72.0,69.3,30.10,South,180,0.0,1.6,91,0.18,,,0.01,,meteobridge,2013-07-22 00:02:00,
2013-07-21 20:12:00,71.6,68.9,30.10,North,0,0.0,0.0,91,0.22,,,0.06,,meteobridge,2013-07-22 00:12:00,
2013-07-21 20:22:00,71.8,69.3,30.10,North,0,0.0,0.0,92,0.25,,,0.08,,meteobridge,2013-07-22 00:22:00,
2013-07-21 20:32:00,71.6,69.1,30.10,North,0,0.0,0.0,92,0.26,,,0.09,,meteobridge,2013-07-22 00:32:00,
2013-07-21 20:42:00,71.6,69.4,30.10,South,180,0.0,0.0,93,0.26,,,0.11,9.0,meteobridge,2013-07-22 00:42:00,
2013-07-21 20:53:00,71.1,69.3,30.10,North,0,0.0,0.0,94,0.14,,,0.12,9.0,meteobridge,2013-07-22 00:53:00,
2013-07-21 21:03:00,70.9,69.1,30.10,North,0,0.0,0.0,94,0.12,,,0.13,9.0,meteobridge,2013-07-22 01:03:00,
2013-07-21 21:13:00,71.1,69.3,30.10,North,0,0.0,0.0,94,0.08,,,0.14,9.0,meteobridge,2013-07-22 01:13:00,
2013-07-21 21:23:00,71.2,69.4,30.10,North,0,0.0,0.0,94,0.06,,,0.14,9.0,meteobridge,2013-07-22 01:23:00,
2013-07-21 21:33:00,71.2,69.8,30.11,North,0,0.0,0.0,95,0.05,,,0.14,9.0,meteobridge,2013-07-22 01:33:00,
2013-07-21 21:43:00,71.2,69.8,30.11,North,0,0.0,0.0,95,0.04,,,0.14,9.0,meteobridge,2013-07-22 01:43:00,
2013-07-21 21:53:00,71.4,70.0,30.12,North,0,0.0,0.0,95,0.02,,,0.14,,meteobridge,2013-07-22 01:53:00,
2013-07-21 22:03:00,71.4,70.0,30.12,North,0,0.0,0.0,95,0.01,,,0.14,,meteobridge,2013-07-22 02:03:00,
2013-07-21 22:13:00,71.4,70.0,30.13,North,0,0.0,0.0,95,0.00,,,0.14,,meteobridge,2013-07-22 02:13:00,
2013-07-21 22:23:00,71.6,69.8,30.13,North,0,0.0,0.0,94,0.00,,,0.14,,meteobridge,2013-07-22 02:23:00,
2013-07-21 22:34:00,71.6,69.8,30.13,North,0,0.0,0.0,94,0.00,,,0.14,,meteobridge,2013-07-22 02:34:00,
2013-07-21 22:44:00,71.6,69.8,30.13,North,0,0.0,0.0,94,0.00,,,0.14,,meteobridge,2013-07-22 02:44:00,
2013-07-21 22:54:00,71.6,70.2,30.14,North,0,0.0,0.0,95,0.00,,,0.14,,meteobridge,2013-07-22 02:54:00,
2013-07-21 23:04:00,71.8,70.3,30.13,North,0,0.0,0.0,95,0.00,,,0.14,,meteobridge,2013-07-22 03:04:00,
2013-07-21 23:14:00,71.8,70.3,30.14,North,0,0.0,0.0,95,0.00,,,0.14,,meteobridge,2013-07-22 03:14:00,
2013-07-21 23:24:00,72.0,70.5,30.13,North,0,0.0,0.0,95,0.00,,,0.14,,meteobridge,2013-07-22 03:24:00,
2013-07-21 23:34:00,71.8,70.3,30.13,North,0,0.0,0.0,95,0.00,,,0.14,,meteobridge,2013-07-22 03:34:00,
2013-07-21 23:44:00,71.8,70.3,30.13,North,0,0.0,0.0,95,0.00,,,0.14,,meteobridge,2013-07-22 03:44:00,
2013-07-21 23:54:00,72.0,70.5,30.13,North,0,0.0,0.0,95,0.00,,,0.14,,meteobridge,2013-07-22 03:54:00,